owner,sensor,date,latitude,longitude,vertical_datum,sea_water_temperature,qcFlag 
NERRS,ioos:station:NOAA.NERRS:wkbfrwq:1,2019-02-01T00:45:00Z,30.4162,-87.8228,0.0,12.6,11111222 
NERRS,ioos:station:NOAA.NERRS:wkbfrwq:1,2019-02-01T01:45:00Z,30.4162,-87.8228,0.0,12.6,11111222 
NERRS,ioos:station:NOAA.NERRS:wkbfrwq:1,2019-02-01T02:45:00Z,30.4162,-87.8228,0.0,12.5,11111222 
NERRS,ioos:station:NOAA.NERRS:wkbfrwq:1,2019-02-01T03:45:00Z,30.4162,-87.8228,0.0,12.6,11111222 
NERRS,ioos:station:NOAA.NERRS:wkbfrwq:1,2019-02-01T04:45:00Z,30.4162,-87.8228,0.0,12.5,11111222 
NERRS,ioos:station:NOAA.NERRS:wkbfrwq:1,2019-02-01T05:45:00Z,30.4162,-87.8228,0.0,12.2,11111222 
NERRS,ioos:station:NOAA.NERRS:wkbfrwq:1,2019-02-01T06:45:00Z,30.4162,-87.8228,0.0,12.2,11111222 
NERRS,ioos:station:NOAA.NERRS:wkbfrwq:1,2019-02-01T07:45:00Z,30.4162,-87.8228,0.0,12.0,11111222 
NERRS,ioos:station:NOAA.NERRS:wkbfrwq:1,2019-02-01T08:45:00Z,30.4162,-87.8228,0.0,11.9,11111222 
NERRS,ioos:station:NOAA.NERRS:wkbfrwq:1,2019-02-01T09:45:00Z,30.4162,-87.8228,0.0,12.0,11111222 
NERRS,ioos:station:NOAA.NERRS:wkbfrwq:1,2019-02-01T10:45:00Z,30.4162,-87.8228,0.0,11.9,11111222 
NERRS,ioos:station:NOAA.NERRS:wkbfrwq:1,2019-02-01T11:45:00Z,30.4162,-87.8228,0.0,11.9,11111222 
NERRS,ioos:station:NOAA.NERRS:wkbfrwq:1,2019-02-01T12:45:00Z,30.4162,-87.8228,0.0,11.9,11111222 
NERRS,ioos:station:NOAA.NERRS:wkbfrwq:1,2019-02-01T13:45:00Z,30.4162,-87.8228,0.0,12.0,11111222 
NERRS,ioos:station:NOAA.NERRS:wkbfrwq:1,2019-02-01T15:45:00Z,30.4162,-87.8228,0.0,11.7,11111222 
NERRS,ioos:station:NOAA.NERRS:wkbfrwq:1,2019-02-01T17:45:00Z,30.4162,-87.8228,0.0,11.6,11111222 
NERRS,ioos:station:NOAA.NERRS:wkbfrwq:1,2019-02-01T18:45:00Z,30.4162,-87.8228,0.0,11.6,11111222 
NERRS,ioos:station:NOAA.NERRS:wkbfrwq:1,2019-02-01T19:45:00Z,30.4162,-87.8228,0.0,11.7,11111222 
NERRS,ioos:station:NOAA.NERRS:wkbfrwq:1,2019-02-01T20:45:00Z,30.4162,-87.8228,0.0,11.8,11111222 
NERRS,ioos:station:NOAA.NERRS:wkbfrwq:1,2019-02-01T21:45:00Z,30.4162,-87.8228,0.0,11.9,11111222 
NERRS,ioos:station:NOAA.NERRS:wkbfrwq:1,2019-02-01T23:45:00Z,30.4162,-87.8228,0.0,12.3,11111222 
NERRS,ioos:station:NOAA.NERRS:wkbfrwq:1,2019-02-02T00:45:00Z,30.4162,-87.8228,0.0,12.2,11111222 
NERRS,ioos:station:NOAA.NERRS:wkbfrwq:1,2019-02-02T01:45:00Z,30.4162,-87.8228,0.0,12.1,11111222 
NERRS,ioos:station:NOAA.NERRS:wkbfrwq:1,2019-02-02T02:45:00Z,30.4162,-87.8228,0.0,12.1,11111222 
NERRS,ioos:station:NOAA.NERRS:wkbfrwq:1,2019-02-02T03:45:00Z,30.4162,-87.8228,0.0,12.0,11111222 
NERRS,ioos:station:NOAA.NERRS:wkbfrwq:1,2019-02-02T04:45:00Z,30.4162,-87.8228,0.0,12.1,11111222 
NERRS,ioos:station:NOAA.NERRS:wkbfrwq:1,2019-02-02T05:45:00Z,30.4162,-87.8228,0.0,12.1,11111222 
NERRS,ioos:station:NOAA.NERRS:wkbfrwq:1,2019-02-02T06:45:00Z,30.4162,-87.8228,0.0,12.0,11111222 
NERRS,ioos:station:NOAA.NERRS:wkbfrwq:1,2019-02-02T07:45:00Z,30.4162,-87.8228,0.0,12.1,11111222 
NERRS,ioos:station:NOAA.NERRS:wkbfrwq:1,2019-02-02T08:45:00Z,30.4162,-87.8228,0.0,12.1,11111222 
NERRS,ioos:station:NOAA.NERRS:wkbfrwq:1,2019-02-02T09:45:00Z,30.4162,-87.8228,0.0,12.0,11111222 
NERRS,ioos:station:NOAA.NERRS:wkbfrwq:1,2019-02-02T10:45:00Z,30.4162,-87.8228,0.0,12.1,11111222 
NERRS,ioos:station:NOAA.NERRS:wkbfrwq:1,2019-02-02T11:45:00Z,30.4162,-87.8228,0.0,12.0,11111222 
NERRS,ioos:station:NOAA.NERRS:wkbfrwq:1,2019-02-02T12:45:00Z,30.4162,-87.8228,0.0,12.0,11111222 
NERRS,ioos:station:NOAA.NERRS:wkbfrwq:1,2019-02-02T13:45:00Z,30.4162,-87.8228,0.0,12.0,11111222 
NERRS,ioos:station:NOAA.NERRS:wkbfrwq:1,2019-02-02T14:45:00Z,30.4162,-87.8228,0.0,12.0,11111222 
NERRS,ioos:station:NOAA.NERRS:wkbfrwq:1,2019-02-02T15:45:00Z,30.4162,-87.8228,0.0,12.0,11111222 
NERRS,ioos:station:NOAA.NERRS:wkbfrwq:1,2019-02-02T16:45:00Z,30.4162,-87.8228,0.0,12.0,11111222 
NERRS,ioos:station:NOAA.NERRS:wkbfrwq:1,2019-02-02T17:45:00Z,30.4162,-87.8228,0.0,12.4,11111222 
NERRS,ioos:station:NOAA.NERRS:wkbfrwq:1,2019-02-02T18:45:00Z,30.4162,-87.8228,0.0,12.3,11111222 
NERRS,ioos:station:NOAA.NERRS:wkbfrwq:1,2019-02-02T19:45:00Z,30.4162,-87.8228,0.0,12.4,11111222 
NERRS,ioos:station:NOAA.NERRS:wkbfrwq:1,2019-02-02T21:45:00Z,30.4162,-87.8228,0.0,12.8,11111222 
NERRS,ioos:station:NOAA.NERRS:wkbfrwq:1,2019-02-02T22:45:00Z,30.4162,-87.8228,0.0,13.3,11111222 
NERRS,ioos:station:NOAA.NERRS:wkbfrwq:1,2019-02-03T00:45:00Z,30.4162,-87.8228,0.0,14.3,11111222 
NERRS,ioos:station:NOAA.NERRS:wkbfrwq:1,2019-02-03T01:45:00Z,30.4162,-87.8228,0.0,14.2,11111222 
NERRS,ioos:station:NOAA.NERRS:wkbfrwq:1,2019-02-03T02:45:00Z,30.4162,-87.8228,0.0,13.9,11111222 
NERRS,ioos:station:NOAA.NERRS:wkbfrwq:1,2019-02-03T03:45:00Z,30.4162,-87.8228,0.0,13.7,11111222 
NERRS,ioos:station:NOAA.NERRS:wkbfrwq:1,2019-02-03T04:45:00Z,30.4162,-87.8228,0.0,13.9,11111222 
NERRS,ioos:station:NOAA.NERRS:wkbfrwq:1,2019-02-03T05:45:00Z,30.4162,-87.8228,0.0,13.9,11111222 
NERRS,ioos:station:NOAA.NERRS:wkbfrwq:1,2019-02-03T06:45:00Z,30.4162,-87.8228,0.0,13.9,11111222 
NERRS,ioos:station:NOAA.NERRS:wkbfrwq:1,2019-02-03T07:45:00Z,30.4162,-87.8228,0.0,13.7,11111222 
NERRS,ioos:station:NOAA.NERRS:wkbfrwq:1,2019-02-03T08:45:00Z,30.4162,-87.8228,0.0,13.5,11111222 
NERRS,ioos:station:NOAA.NERRS:wkbfrwq:1,2019-02-03T09:45:00Z,30.4162,-87.8228,0.0,13.3,11111222 
NERRS,ioos:station:NOAA.NERRS:wkbfrwq:1,2019-02-03T10:45:00Z,30.4162,-87.8228,0.0,13.2,11111222 
NERRS,ioos:station:NOAA.NERRS:wkbfrwq:1,2019-02-03T11:45:00Z,30.4162,-87.8228,0.0,13.1,11111222 
NERRS,ioos:station:NOAA.NERRS:wkbfrwq:1,2019-02-03T12:45:00Z,30.4162,-87.8228,0.0,13.2,11111222 
NERRS,ioos:station:NOAA.NERRS:wkbfrwq:1,2019-02-03T13:45:00Z,30.4162,-87.8228,0.0,12.7,11111222 
NERRS,ioos:station:NOAA.NERRS:wkbfrwq:1,2019-02-03T14:45:00Z,30.4162,-87.8228,0.0,12.8,11111222 
NERRS,ioos:station:NOAA.NERRS:wkbfrwq:1,2019-02-03T15:45:00Z,30.4162,-87.8228,0.0,12.8,11111222 
NERRS,ioos:station:NOAA.NERRS:wkbfrwq:1,2019-02-03T16:45:00Z,30.4162,-87.8228,0.0,13.0,11111222 
NERRS,ioos:station:NOAA.NERRS:wkbfrwq:1,2019-02-03T18:45:00Z,30.4162,-87.8228,0.0,14.2,11111222 
NERRS,ioos:station:NOAA.NERRS:wkbfrwq:1,2019-02-03T19:45:00Z,30.4162,-87.8228,0.0,14.6,11111222 
NERRS,ioos:station:NOAA.NERRS:wkbfrwq:1,2019-02-03T20:45:00Z,30.4162,-87.8228,0.0,14.4,11111222 
NERRS,ioos:station:NOAA.NERRS:wkbfrwq:1,2019-02-03T21:45:00Z,30.4162,-87.8228,0.0,14.8,11111222 
NERRS,ioos:station:NOAA.NERRS:wkbfrwq:1,2019-02-03T22:45:00Z,30.4162,-87.8228,0.0,15.2,11111222 
NERRS,ioos:station:NOAA.NERRS:wkbfrwq:1,2019-02-03T23:45:00Z,30.4162,-87.8228,0.0,15.6,11111222 
NERRS,ioos:station:NOAA.NERRS:wkbfrwq:1,2019-02-04T00:45:00Z,30.4162,-87.8228,0.0,16.0,11111222 
NERRS,ioos:station:NOAA.NERRS:wkbfrwq:1,2019-02-04T01:45:00Z,30.4162,-87.8228,0.0,16.5,11111222 
NERRS,ioos:station:NOAA.NERRS:wkbfrwq:1,2019-02-04T02:45:00Z,30.4162,-87.8228,0.0,16.3,11111222 
NERRS,ioos:station:NOAA.NERRS:wkbfrwq:1,2019-02-04T03:45:00Z,30.4162,-87.8228,0.0,16.2,11111222 
NERRS,ioos:station:NOAA.NERRS:wkbfrwq:1,2019-02-04T04:45:00Z,30.4162,-87.8228,0.0,15.9,11111222 
NERRS,ioos:station:NOAA.NERRS:wkbfrwq:1,2019-02-04T05:45:00Z,30.4162,-87.8228,0.0,16.1,11111222 
NERRS,ioos:station:NOAA.NERRS:wkbfrwq:1,2019-02-04T06:45:00Z,30.4162,-87.8228,0.0,16.1,11111222 
NERRS,ioos:station:NOAA.NERRS:wkbfrwq:1,2019-02-04T07:45:00Z,30.4162,-87.8228,0.0,15.5,11111222 
NERRS,ioos:station:NOAA.NERRS:wkbfrwq:1,2019-02-04T08:45:00Z,30.4162,-87.8228,0.0,15.2,11111222 
NERRS,ioos:station:NOAA.NERRS:wkbfrwq:1,2019-02-04T09:45:00Z,30.4162,-87.8228,0.0,14.9,11111222 
NERRS,ioos:station:NOAA.NERRS:wkbfrwq:1,2019-02-04T10:45:00Z,30.4162,-87.8228,0.0,14.3,11111222 
NERRS,ioos:station:NOAA.NERRS:wkbfrwq:1,2019-02-04T11:45:00Z,30.4162,-87.8228,0.0,14.2,11111222 
NERRS,ioos:station:NOAA.NERRS:wkbfrwq:1,2019-02-04T12:45:00Z,30.4162,-87.8228,0.0,14.1,11111222 
NERRS,ioos:station:NOAA.NERRS:wkbfrwq:1,2019-02-04T13:45:00Z,30.4162,-87.8228,0.0,13.8,11111222 
NERRS,ioos:station:NOAA.NERRS:wkbfrwq:1,2019-02-04T14:45:00Z,30.4162,-87.8228,0.0,13.9,11111222 
NERRS,ioos:station:NOAA.NERRS:wkbfrwq:1,2019-02-04T15:45:00Z,30.4162,-87.8228,0.0,13.9,11111222 
NERRS,ioos:station:NOAA.NERRS:wkbfrwq:1,2019-02-04T16:45:00Z,30.4162,-87.8228,0.0,14.5,11111222 
NERRS,ioos:station:NOAA.NERRS:wkbfrwq:1,2019-02-04T18:45:00Z,30.4162,-87.8228,0.0,14.8,11111222 
NERRS,ioos:station:NOAA.NERRS:wkbfrwq:1,2019-02-04T19:45:00Z,30.4162,-87.8228,0.0,15.7,11111222 
NERRS,ioos:station:NOAA.NERRS:wkbfrwq:1,2019-02-04T21:45:00Z,30.4162,-87.8228,0.0,15.8,11111222 
NERRS,ioos:station:NOAA.NERRS:wkbfrwq:1,2019-02-04T22:45:00Z,30.4162,-87.8228,0.0,16.2,11111222 
NERRS,ioos:station:NOAA.NERRS:wkbfrwq:1,2019-02-04T23:45:00Z,30.4162,-87.8228,0.0,16.2,11111222 
NERRS,ioos:station:NOAA.NERRS:wkbfrwq:1,2019-02-05T00:45:00Z,30.4162,-87.8228,0.0,16.4,11111222 
NERRS,ioos:station:NOAA.NERRS:wkbfrwq:1,2019-02-05T01:45:00Z,30.4162,-87.8228,0.0,16.5,11111222 
NERRS,ioos:station:NOAA.NERRS:wkbfrwq:1,2019-02-05T02:45:00Z,30.4162,-87.8228,0.0,16.5,11111222 
NERRS,ioos:station:NOAA.NERRS:wkbfrwq:1,2019-02-05T03:45:00Z,30.4162,-87.8228,0.0,16.6,11111222 
NERRS,ioos:station:NOAA.NERRS:wkbfrwq:1,2019-02-05T04:45:00Z,30.4162,-87.8228,0.0,16.5,11111222 
NERRS,ioos:station:NOAA.NERRS:wkbfrwq:1,2019-02-05T05:45:00Z,30.4162,-87.8228,0.0,16.4,11111222 
NERRS,ioos:station:NOAA.NERRS:wkbfrwq:1,2019-02-05T06:45:00Z,30.4162,-87.8228,0.0,16.4,11111222 
NERRS,ioos:station:NOAA.NERRS:wkbfrwq:1,2019-02-05T07:45:00Z,30.4162,-87.8228,0.0,16.2,11111222 
NERRS,ioos:station:NOAA.NERRS:wkbfrwq:1,2019-02-05T08:45:00Z,30.4162,-87.8228,0.0,15.9,11111222 
NERRS,ioos:station:NOAA.NERRS:wkbfrwq:1,2019-02-05T09:45:00Z,30.4162,-87.8228,0.0,15.5,11111222 
NERRS,ioos:station:NOAA.NERRS:wkbfrwq:1,2019-02-05T10:45:00Z,30.4162,-87.8228,0.0,15.2,11111222 
NERRS,ioos:station:NOAA.NERRS:wkbfrwq:1,2019-02-05T11:45:00Z,30.4162,-87.8228,0.0,15.2,11111222 
NERRS,ioos:station:NOAA.NERRS:wkbfrwq:1,2019-02-05T12:45:00Z,30.4162,-87.8228,0.0,15.1,11111222 
NERRS,ioos:station:NOAA.NERRS:wkbfrwq:1,2019-02-05T13:45:00Z,30.4162,-87.8228,0.0,15.1,11111222 
NERRS,ioos:station:NOAA.NERRS:wkbfrwq:1,2019-02-05T14:45:00Z,30.4162,-87.8228,0.0,15.2,11111222 
NERRS,ioos:station:NOAA.NERRS:wkbfrwq:1,2019-02-05T16:45:00Z,30.4162,-87.8228,0.0,15.5,11111222 
NERRS,ioos:station:NOAA.NERRS:wkbfrwq:1,2019-02-05T17:45:00Z,30.4162,-87.8228,0.0,15.5,11111222 
NERRS,ioos:station:NOAA.NERRS:wkbfrwq:1,2019-02-05T18:45:00Z,30.4162,-87.8228,0.0,15.7,11111222 
NERRS,ioos:station:NOAA.NERRS:wkbfrwq:1,2019-02-05T19:45:00Z,30.4162,-87.8228,0.0,16.1,11111222 
NERRS,ioos:station:NOAA.NERRS:wkbfrwq:1,2019-02-05T20:45:00Z,30.4162,-87.8228,0.0,16.4,11111222 
NERRS,ioos:station:NOAA.NERRS:wkbfrwq:1,2019-02-05T21:45:00Z,30.4162,-87.8228,0.0,16.3,11111222 
NERRS,ioos:station:NOAA.NERRS:wkbfrwq:1,2019-02-05T23:45:00Z,30.4162,-87.8228,0.0,17.0,11111222 
NERRS,ioos:station:NOAA.NERRS:wkbfrwq:1,2019-02-06T00:45:00Z,30.4162,-87.8228,0.0,16.9,11111222 
NERRS,ioos:station:NOAA.NERRS:wkbfrwq:1,2019-02-06T01:45:00Z,30.4162,-87.8228,0.0,17.2,11111222 
NERRS,ioos:station:NOAA.NERRS:wkbfrwq:1,2019-02-06T02:45:00Z,30.4162,-87.8228,0.0,17.5,11111222 
NERRS,ioos:station:NOAA.NERRS:wkbfrwq:1,2019-02-06T03:45:00Z,30.4162,-87.8228,0.0,17.7,11111222 
NERRS,ioos:station:NOAA.NERRS:wkbfrwq:1,2019-02-06T04:45:00Z,30.4162,-87.8228,0.0,17.8,11111222 
NERRS,ioos:station:NOAA.NERRS:wkbfrwq:1,2019-02-06T05:45:00Z,30.4162,-87.8228,0.0,17.8,11111222 
NERRS,ioos:station:NOAA.NERRS:wkbfrwq:1,2019-02-06T06:45:00Z,30.4162,-87.8228,0.0,17.8,11111222 
NERRS,ioos:station:NOAA.NERRS:wkbfrwq:1,2019-02-06T07:45:00Z,30.4162,-87.8228,0.0,17.3,11111222 
NERRS,ioos:station:NOAA.NERRS:wkbfrwq:1,2019-02-06T08:45:00Z,30.4162,-87.8228,0.0,17.1,11111222 
NERRS,ioos:station:NOAA.NERRS:wkbfrwq:1,2019-02-06T09:45:00Z,30.4162,-87.8228,0.0,17.1,11111222 
NERRS,ioos:station:NOAA.NERRS:wkbfrwq:1,2019-02-06T10:45:00Z,30.4162,-87.8228,0.0,16.8,11111222 
NERRS,ioos:station:NOAA.NERRS:wkbfrwq:1,2019-02-06T11:45:00Z,30.4162,-87.8228,0.0,16.5,11111222 
NERRS,ioos:station:NOAA.NERRS:wkbfrwq:1,2019-02-06T12:45:00Z,30.4162,-87.8228,0.0,16.3,11111222 
NERRS,ioos:station:NOAA.NERRS:wkbfrwq:1,2019-02-06T13:45:00Z,30.4162,-87.8228,0.0,16.4,11111222 
NERRS,ioos:station:NOAA.NERRS:wkbfrwq:1,2019-02-06T14:45:00Z,30.4162,-87.8228,0.0,15.8,11111222 
NERRS,ioos:station:NOAA.NERRS:wkbfrwq:1,2019-02-06T15:45:00Z,30.4162,-87.8228,0.0,15.9,11111222 
NERRS,ioos:station:NOAA.NERRS:wkbfrwq:1,2019-02-06T17:45:00Z,30.4162,-87.8228,0.0,16.1,11111222 
NERRS,ioos:station:NOAA.NERRS:wkbfrwq:1,2019-02-06T18:45:00Z,30.4162,-87.8228,0.0,16.3,11111222 
NERRS,ioos:station:NOAA.NERRS:wkbfrwq:1,2019-02-06T19:45:00Z,30.4162,-87.8228,0.0,16.3,11111222 
NERRS,ioos:station:NOAA.NERRS:wkbfrwq:1,2019-02-06T22:45:00Z,30.4162,-87.8228,0.0,16.0,11111222 
NERRS,ioos:station:NOAA.NERRS:wkbfrwq:1,2019-02-06T23:45:00Z,30.4162,-87.8228,0.0,16.5,11111222 
NERRS,ioos:station:NOAA.NERRS:wkbfrwq:1,2019-02-07T00:45:00Z,30.4162,-87.8228,0.0,17.2,11111222 
NERRS,ioos:station:NOAA.NERRS:wkbfrwq:1,2019-02-07T01:45:00Z,30.4162,-87.8228,0.0,16.8,11111222 
NERRS,ioos:station:NOAA.NERRS:wkbfrwq:1,2019-02-07T02:45:00Z,30.4162,-87.8228,0.0,19.0,11111222 
NERRS,ioos:station:NOAA.NERRS:wkbfrwq:1,2019-02-07T03:45:00Z,30.4162,-87.8228,0.0,18.0,11111222 
NERRS,ioos:station:NOAA.NERRS:wkbfrwq:1,2019-02-07T04:45:00Z,30.4162,-87.8228,0.0,18.8,11111222 
NERRS,ioos:station:NOAA.NERRS:wkbfrwq:1,2019-02-07T05:45:00Z,30.4162,-87.8228,0.0,19.0,11111222 
NERRS,ioos:station:NOAA.NERRS:wkbfrwq:1,2019-02-07T06:45:00Z,30.4162,-87.8228,0.0,19.1,11111222 
NERRS,ioos:station:NOAA.NERRS:wkbfrwq:1,2019-02-07T07:45:00Z,30.4162,-87.8228,0.0,18.6,11111222 
NERRS,ioos:station:NOAA.NERRS:wkbfrwq:1,2019-02-07T08:45:00Z,30.4162,-87.8228,0.0,18.4,11111222 
NERRS,ioos:station:NOAA.NERRS:wkbfrwq:1,2019-02-07T09:45:00Z,30.4162,-87.8228,0.0,17.9,11111222 
NERRS,ioos:station:NOAA.NERRS:wkbfrwq:1,2019-02-07T10:45:00Z,30.4162,-87.8228,0.0,17.8,11111222 
NERRS,ioos:station:NOAA.NERRS:wkbfrwq:1,2019-02-07T11:45:00Z,30.4162,-87.8228,0.0,17.7,11111222 
NERRS,ioos:station:NOAA.NERRS:wkbfrwq:1,2019-02-07T12:45:00Z,30.4162,-87.8228,0.0,17.2,11111222 
NERRS,ioos:station:NOAA.NERRS:wkbfrwq:1,2019-02-07T13:45:00Z,30.4162,-87.8228,0.0,17.5,11111222 
NERRS,ioos:station:NOAA.NERRS:wkbfrwq:1,2019-02-07T15:45:00Z,30.4162,-87.8228,0.0,16.8,11111222 
NERRS,ioos:station:NOAA.NERRS:wkbfrwq:1,2019-02-07T17:45:00Z,30.4162,-87.8228,0.0,17.2,11111222 
NERRS,ioos:station:NOAA.NERRS:wkbfrwq:1,2019-02-07T18:45:00Z,30.4162,-87.8228,0.0,16.8,11111222 
NERRS,ioos:station:NOAA.NERRS:wkbfrwq:1,2019-02-07T19:45:00Z,30.4162,-87.8228,0.0,18.4,11111222 
NERRS,ioos:station:NOAA.NERRS:wkbfrwq:1,2019-02-07T20:45:00Z,30.4162,-87.8228,0.0,18.8,11111222 
NERRS,ioos:station:NOAA.NERRS:wkbfrwq:1,2019-02-07T21:45:00Z,30.4162,-87.8228,0.0,18.8,11111222 
NERRS,ioos:station:NOAA.NERRS:wkbfrwq:1,2019-02-07T23:45:00Z,30.4162,-87.8228,0.0,19.3,11111222 
NERRS,ioos:station:NOAA.NERRS:wkbfrwq:1,2019-02-08T00:45:00Z,30.4162,-87.8228,0.0,18.0,11111222 
NERRS,ioos:station:NOAA.NERRS:wkbfrwq:1,2019-02-08T01:45:00Z,30.4162,-87.8228,0.0,18.7,11111222 
NERRS,ioos:station:NOAA.NERRS:wkbfrwq:1,2019-02-08T02:45:00Z,30.4162,-87.8228,0.0,19.8,11111222 
NERRS,ioos:station:NOAA.NERRS:wkbfrwq:1,2019-02-08T03:45:00Z,30.4162,-87.8228,0.0,20.1,11111222 
NERRS,ioos:station:NOAA.NERRS:wkbfrwq:1,2019-02-08T04:45:00Z,30.4162,-87.8228,0.0,21.3,11111222 
NERRS,ioos:station:NOAA.NERRS:wkbfrwq:1,2019-02-08T05:45:00Z,30.4162,-87.8228,0.0,21.3,11111222 
NERRS,ioos:station:NOAA.NERRS:wkbfrwq:1,2019-02-08T06:45:00Z,30.4162,-87.8228,0.0,21.2,11111222 
NERRS,ioos:station:NOAA.NERRS:wkbfrwq:1,2019-02-08T07:45:00Z,30.4162,-87.8228,0.0,20.2,11111222 
NERRS,ioos:station:NOAA.NERRS:wkbfrwq:1,2019-02-08T08:45:00Z,30.4162,-87.8228,0.0,19.5,11111222 
NERRS,ioos:station:NOAA.NERRS:wkbfrwq:1,2019-02-08T09:45:00Z,30.4162,-87.8228,0.0,18.8,11111222 
NERRS,ioos:station:NOAA.NERRS:wkbfrwq:1,2019-02-08T10:45:00Z,30.4162,-87.8228,0.0,18.8,11111222 
NERRS,ioos:station:NOAA.NERRS:wkbfrwq:1,2019-02-08T11:45:00Z,30.4162,-87.8228,0.0,18.7,11111222 
NERRS,ioos:station:NOAA.NERRS:wkbfrwq:1,2019-02-08T12:45:00Z,30.4162,-87.8228,0.0,18.5,11111222 
NERRS,ioos:station:NOAA.NERRS:wkbfrwq:1,2019-02-08T13:45:00Z,30.4162,-87.8228,0.0,18.4,11111222 
NERRS,ioos:station:NOAA.NERRS:wkbfrwq:1,2019-02-08T14:45:00Z,30.4162,-87.8228,0.0,18.3,11111222 
NERRS,ioos:station:NOAA.NERRS:wkbfrwq:1,2019-02-08T16:45:00Z,30.4162,-87.8228,0.0,18.2,11111222 
NERRS,ioos:station:NOAA.NERRS:wkbfrwq:1,2019-02-08T17:45:00Z,30.4162,-87.8228,0.0,18.2,11111222 
NERRS,ioos:station:NOAA.NERRS:wkbfrwq:1,2019-02-08T18:45:00Z,30.4162,-87.8228,0.0,18.2,11111222 
NERRS,ioos:station:NOAA.NERRS:wkbfrwq:1,2019-02-08T19:45:00Z,30.4162,-87.8228,0.0,18.2,11111222 
NERRS,ioos:station:NOAA.NERRS:wkbfrwq:1,2019-02-08T21:45:00Z,30.4162,-87.8228,0.0,18.0,11111222 
NERRS,ioos:station:NOAA.NERRS:wkbfrwq:1,2019-02-08T23:45:00Z,30.4162,-87.8228,0.0,17.8,11111222 
NERRS,ioos:station:NOAA.NERRS:wkbfrwq:1,2019-02-09T00:45:00Z,30.4162,-87.8228,0.0,17.9,11111222 
NERRS,ioos:station:NOAA.NERRS:wkbfrwq:1,2019-02-09T01:45:00Z,30.4162,-87.8228,0.0,17.8,11111222 
NERRS,ioos:station:NOAA.NERRS:wkbfrwq:1,2019-02-09T02:45:00Z,30.4162,-87.8228,0.0,17.4,11111222 
NERRS,ioos:station:NOAA.NERRS:wkbfrwq:1,2019-02-09T03:45:00Z,30.4162,-87.8228,0.0,17.4,11111222 
NERRS,ioos:station:NOAA.NERRS:wkbfrwq:1,2019-02-09T04:45:00Z,30.4162,-87.8228,0.0,17.4,11111222 
NERRS,ioos:station:NOAA.NERRS:wkbfrwq:1,2019-02-09T05:45:00Z,30.4162,-87.8228,0.0,17.3,11111222 
NERRS,ioos:station:NOAA.NERRS:wkbfrwq:1,2019-02-09T06:45:00Z,30.4162,-87.8228,0.0,17.2,11111222 
NERRS,ioos:station:NOAA.NERRS:wkbfrwq:1,2019-02-09T07:45:00Z,30.4162,-87.8228,0.0,17.0,11111222 
NERRS,ioos:station:NOAA.NERRS:wkbfrwq:1,2019-02-09T08:45:00Z,30.4162,-87.8228,0.0,17.0,11111222 
NERRS,ioos:station:NOAA.NERRS:wkbfrwq:1,2019-02-09T09:45:00Z,30.4162,-87.8228,0.0,16.8,11111222 
NERRS,ioos:station:NOAA.NERRS:wkbfrwq:1,2019-02-09T10:45:00Z,30.4162,-87.8228,0.0,16.6,11111222 
NERRS,ioos:station:NOAA.NERRS:wkbfrwq:1,2019-02-09T11:45:00Z,30.4162,-87.8228,0.0,16.5,11111222 
NERRS,ioos:station:NOAA.NERRS:wkbfrwq:1,2019-02-09T12:45:00Z,30.4162,-87.8228,0.0,16.6,11111222 
NERRS,ioos:station:NOAA.NERRS:wkbfrwq:1,2019-02-09T13:45:00Z,30.4162,-87.8228,0.0,16.4,11111222 
NERRS,ioos:station:NOAA.NERRS:wkbfrwq:1,2019-02-09T14:45:00Z,30.4162,-87.8228,0.0,16.3,11111222 
NERRS,ioos:station:NOAA.NERRS:wkbfrwq:1,2019-02-09T15:45:00Z,30.4162,-87.8228,0.0,16.2,11111222 
NERRS,ioos:station:NOAA.NERRS:wkbfrwq:1,2019-02-09T16:45:00Z,30.4162,-87.8228,0.0,16.3,11111222 
NERRS,ioos:station:NOAA.NERRS:wkbfrwq:1,2019-02-09T18:45:00Z,30.4162,-87.8228,0.0,16.5,11111222 
NERRS,ioos:station:NOAA.NERRS:wkbfrwq:1,2019-02-09T19:45:00Z,30.4162,-87.8228,0.0,16.4,11111222 
NERRS,ioos:station:NOAA.NERRS:wkbfrwq:1,2019-02-09T20:45:00Z,30.4162,-87.8228,0.0,16.2,11111222 
NERRS,ioos:station:NOAA.NERRS:wkbfrwq:1,2019-02-09T23:45:00Z,30.4162,-87.8228,0.0,16.4,11111222 
NERRS,ioos:station:NOAA.NERRS:wkbfrwq:1,2019-02-10T00:45:00Z,30.4162,-87.8228,0.0,15.5,11111222 
NERRS,ioos:station:NOAA.NERRS:wkbfrwq:1,2019-02-10T01:45:00Z,30.4162,-87.8228,0.0,14.6,11111222 
NERRS,ioos:station:NOAA.NERRS:wkbfrwq:1,2019-02-10T02:45:00Z,30.4162,-87.8228,0.0,15.9,11111222 
NERRS,ioos:station:NOAA.NERRS:wkbfrwq:1,2019-02-10T03:45:00Z,30.4162,-87.8228,0.0,16.1,11111222 
NERRS,ioos:station:NOAA.NERRS:wkbfrwq:1,2019-02-10T04:45:00Z,30.4162,-87.8228,0.0,15.1,11111222 
NERRS,ioos:station:NOAA.NERRS:wkbfrwq:1,2019-02-10T05:45:00Z,30.4162,-87.8228,0.0,14.9,11111222 
NERRS,ioos:station:NOAA.NERRS:wkbfrwq:1,2019-02-10T06:45:00Z,30.4162,-87.8228,0.0,15.8,11111222 
NERRS,ioos:station:NOAA.NERRS:wkbfrwq:1,2019-02-10T07:45:00Z,30.4162,-87.8228,0.0,15.9,11111222 
NERRS,ioos:station:NOAA.NERRS:wkbfrwq:1,2019-02-10T08:45:00Z,30.4162,-87.8228,0.0,14.8,11111222 
NERRS,ioos:station:NOAA.NERRS:wkbfrwq:1,2019-02-10T09:45:00Z,30.4162,-87.8228,0.0,14.6,11111222 
NERRS,ioos:station:NOAA.NERRS:wkbfrwq:1,2019-02-10T10:45:00Z,30.4162,-87.8228,0.0,15.0,11111222 
NERRS,ioos:station:NOAA.NERRS:wkbfrwq:1,2019-02-10T11:45:00Z,30.4162,-87.8228,0.0,15.4,11111222 
NERRS,ioos:station:NOAA.NERRS:wkbfrwq:1,2019-02-10T12:45:00Z,30.4162,-87.8228,0.0,15.0,11111222 
NERRS,ioos:station:NOAA.NERRS:wkbfrwq:1,2019-02-10T13:45:00Z,30.4162,-87.8228,0.0,14.7,11111222 
NERRS,ioos:station:NOAA.NERRS:wkbfrwq:1,2019-02-10T15:45:00Z,30.4162,-87.8228,0.0,14.6,11111222 
NERRS,ioos:station:NOAA.NERRS:wkbfrwq:1,2019-02-10T16:45:00Z,30.4162,-87.8228,0.0,14.5,11111222 
NERRS,ioos:station:NOAA.NERRS:wkbfrwq:1,2019-02-10T17:45:00Z,30.4162,-87.8228,0.0,14.7,11111222 
NERRS,ioos:station:NOAA.NERRS:wkbfrwq:1,2019-02-10T19:45:00Z,30.4162,-87.8228,0.0,14.7,11111222 
NERRS,ioos:station:NOAA.NERRS:wkbfrwq:1,2019-02-10T20:45:00Z,30.4162,-87.8228,0.0,15.0,11111222 
NERRS,ioos:station:NOAA.NERRS:wkbfrwq:1,2019-02-10T21:45:00Z,30.4162,-87.8228,0.0,15.4,11111222 
NERRS,ioos:station:NOAA.NERRS:wkbfrwq:1,2019-02-10T22:45:00Z,30.4162,-87.8228,0.0,15.2,11111222 
NERRS,ioos:station:NOAA.NERRS:wkbfrwq:1,2019-02-11T00:45:00Z,30.4162,-87.8228,0.0,15.1,11111222 
NERRS,ioos:station:NOAA.NERRS:wkbfrwq:1,2019-02-11T01:45:00Z,30.4162,-87.8228,0.0,15.3,11111222 
NERRS,ioos:station:NOAA.NERRS:wkbfrwq:1,2019-02-11T02:45:00Z,30.4162,-87.8228,0.0,15.3,11111222 
NERRS,ioos:station:NOAA.NERRS:wkbfrwq:1,2019-02-11T03:45:00Z,30.4162,-87.8228,0.0,15.1,11111222 
NERRS,ioos:station:NOAA.NERRS:wkbfrwq:1,2019-02-11T04:45:00Z,30.4162,-87.8228,0.0,14.9,11111222 
NERRS,ioos:station:NOAA.NERRS:wkbfrwq:1,2019-02-11T05:45:00Z,30.4162,-87.8228,0.0,14.9,11111222 
NERRS,ioos:station:NOAA.NERRS:wkbfrwq:1,2019-02-11T06:45:00Z,30.4162,-87.8228,0.0,15.0,11111222 
NERRS,ioos:station:NOAA.NERRS:wkbfrwq:1,2019-02-11T07:45:00Z,30.4162,-87.8228,0.0,15.1,11111222 
NERRS,ioos:station:NOAA.NERRS:wkbfrwq:1,2019-02-11T09:45:00Z,30.4162,-87.8228,0.0,15.0,11111222 
NERRS,ioos:station:NOAA.NERRS:wkbfrwq:1,2019-02-11T10:45:00Z,30.4162,-87.8228,0.0,15.0,11111222 
NERRS,ioos:station:NOAA.NERRS:wkbfrwq:1,2019-02-11T11:45:00Z,30.4162,-87.8228,0.0,15.0,11111222 
NERRS,ioos:station:NOAA.NERRS:wkbfrwq:1,2019-02-11T12:45:00Z,30.4162,-87.8228,0.0,15.0,11111222 
NERRS,ioos:station:NOAA.NERRS:wkbfrwq:1,2019-02-11T13:45:00Z,30.4162,-87.8228,0.0,14.9,11111222 
NERRS,ioos:station:NOAA.NERRS:wkbfrwq:1,2019-02-11T14:45:00Z,30.4162,-87.8228,0.0,15.1,11111222 
NERRS,ioos:station:NOAA.NERRS:wkbfrwq:1,2019-02-11T15:45:00Z,30.4162,-87.8228,0.0,15.1,11111222 
NERRS,ioos:station:NOAA.NERRS:wkbfrwq:1,2019-02-11T16:45:00Z,30.4162,-87.8228,0.0,15.2,11111222 
NERRS,ioos:station:NOAA.NERRS:wkbfrwq:1,2019-02-11T17:45:00Z,30.4162,-87.8228,0.0,15.5,11111222 
NERRS,ioos:station:NOAA.NERRS:wkbfrwq:1,2019-02-11T18:45:00Z,30.4162,-87.8228,0.0,15.6,11111222 
NERRS,ioos:station:NOAA.NERRS:wkbfrwq:1,2019-02-11T20:45:00Z,30.4162,-87.8228,0.0,15.6,11111222 
NERRS,ioos:station:NOAA.NERRS:wkbfrwq:1,2019-02-11T21:45:00Z,30.4162,-87.8228,0.0,16.0,11111222 
NERRS,ioos:station:NOAA.NERRS:wkbfrwq:1,2019-02-11T22:45:00Z,30.4162,-87.8228,0.0,15.8,11111222 
NERRS,ioos:station:NOAA.NERRS:wkbfrwq:1,2019-02-12T00:45:00Z,30.4162,-87.8228,0.0,16.3,11111222 
NERRS,ioos:station:NOAA.NERRS:wkbfrwq:1,2019-02-12T01:45:00Z,30.4162,-87.8228,0.0,15.8,11111222 
NERRS,ioos:station:NOAA.NERRS:wkbfrwq:1,2019-02-12T02:45:00Z,30.4162,-87.8228,0.0,15.8,11111222 
NERRS,ioos:station:NOAA.NERRS:wkbfrwq:1,2019-02-12T03:45:00Z,30.4162,-87.8228,0.0,15.7,11111222 
NERRS,ioos:station:NOAA.NERRS:wkbfrwq:1,2019-02-12T04:45:00Z,30.4162,-87.8228,0.0,15.6,11111222 
NERRS,ioos:station:NOAA.NERRS:wkbfrwq:1,2019-02-12T05:45:00Z,30.4162,-87.8228,0.0,15.3,11111222 
NERRS,ioos:station:NOAA.NERRS:wkbfrwq:1,2019-02-12T06:45:00Z,30.4162,-87.8228,0.0,15.9,11111222 
NERRS,ioos:station:NOAA.NERRS:wkbfrwq:1,2019-02-12T07:45:00Z,30.4162,-87.8228,0.0,15.8,11111222 
NERRS,ioos:station:NOAA.NERRS:wkbfrwq:1,2019-02-12T08:45:00Z,30.4162,-87.8228,0.0,15.3,11111222 
NERRS,ioos:station:NOAA.NERRS:wkbfrwq:1,2019-02-12T09:45:00Z,30.4162,-87.8228,0.0,15.7,11111222 